Regional Weather Roundup
Issued by NWS

Home | Current Version | Previous Version | Text Only | Print | Product List | Glossary On
Versions: 1 2 3 4 5 6 7 8 9 10 11 12 13 14 15 16 17 18 19 20 21 22 23 24 25 26 27 28
000
ASUS45 KCYS 160010
RWRWY

WYOMING REGIONAL WEATHER ROUNDUP
NATIONAL WEATHER SERVICE CHEYENNE WY
500 PM MST FRI DEC 15 2017

NOTE:  "FAIR" INDICATES FEW OR NO CLOUDS BELOW 12,000 FEET
WITH NO SIGNIFICANT WEATHER AND/OR OBSTRUCTIONS TO VISIBILITY.

WYZ001-160100-
YELLOWSTONE NATIONAL PARK

CITY           SKY/WX    TMP DP  RH WIND       PRES   REMARKS
LK YELLOWSTONE   N/A     23  19  85 CALM      30.03S
6HR MIN TEMP:  21; 6HR MAX TEMP:  27;

W YELLOWSTONE  NOT AVBL

$$
WYZ002>013-054>058-071-098>099-160100-
NORTHERN WYOMING

CITY           SKY/WX    TMP DP  RH WIND       PRES   REMARKS
JACKSON        FAIR      24  17  74 CALM      30.04S
CODY           FAIR      44  15  31 NW12      29.82R
GREYBULL       FAIR      36  18  48 CALM      29.80F
6HR MIN TEMP:  28; 6HR MAX TEMP:  40;

WORLAND        FAIR      31  23  72 SE5       29.79F WCI  26
6HR MIN TEMP:  31; 6HR MAX TEMP:  40;

SHERIDAN       FAIR      36  26  67 N3        29.69F
6HR MIN TEMP:  36; 6HR MAX TEMP:  48;

BUFFALO        FAIR      46  13  26 W6        29.72S
6HR MIN TEMP:  46; 6HR MAX TEMP:  60;

GILLETTE       FAIR      43  19  38 SW15      29.71S
6HR MIN TEMP:  42; 6HR MAX TEMP:  51;

HULETT         FAIR      39  23  52 SW9       29.71S WCI  33
NEWCASTLE      FAIR      36  23  60 E3        29.74F

$$
WYZ014>020-022>026-101>103-160100-
CENTRAL WYOMING

CITY           SKY/WX    TMP DP  RH WIND       PRES   REMARKS
BIG PINEY      FAIR      33  12  41 S3        30.00F
6HR MIN TEMP:  27; 6HR MAX TEMP:  39;

PINEDALE       FAIR      30  16  55 W6        29.99F WCI  24
DUBOIS         FAIR      34   7  32 NW25G38   29.87S WCI  21
LANDER         FAIR      28  21  75 W7        29.84F WCI  21
6HR MIN TEMP:  26; 6HR MAX TEMP:  33;

RIVERTON       FAIR      25  18  74 SW5       29.86F WCI  19
6HR MIN TEMP:  24; 6HR MAX TEMP:  32;

CASPER         FAIR      41  18  39 SW17G30   29.85S
6HR MIN TEMP:  36; 6HR MAX TEMP:  42; 6HR PCP: TRACE;

DOUGLAS        FAIR      45  17  32 SW6       29.81F
6HR MIN TEMP:  43; 6HR MAX TEMP:  56;


$$
WYZ021-027>030-104>119-160100-
SOUTHERN WYOMING

CITY           SKY/WX    TMP DP  RH WIND       PRES   REMARKS
EVANSTON       FAIR      37  11  34 W10       30.05F WCI  30
6HR MIN TEMP:  28; 6HR MAX TEMP:  44;

FORT BRIDGER   FAIR      41  -1  17 W10       30.06F
ROCK SPRINGS   FAIR      39  -3  17 SW16      30.03F WCI  30
6HR MIN TEMP:  36; 6HR MAX TEMP:  44;

DIXON          FAIR      35  11  36 W7        30.10S WCI  29
RAWLINS        FAIR      33  16  49 SE9       29.99F WCI  25
6HR MIN TEMP:  33; 6HR MAX TEMP:  40;

SARATOGA       FAIR      32  16  51 CALM      30.02S
LARAMIE        FAIR      36  12  37 SW21      29.92F WCI  25
6HR MIN TEMP:  34; 6HR MAX TEMP:  40;

CHEYENNE       FAIR      48   7  18 W18G28    29.88F
6HR MIN TEMP:  45; 6HR MAX TEMP:  52;

TORRINGTON     FAIR      50  12  21 NW12      29.80S
6HR MIN TEMP:  49; 6HR MAX TEMP:  57;

PINE BLUFFS    FAIR      50   7  17 W15       29.86S

$$




USA.gov is the U.S. government's official web portal to all federal, state and local government web resources and services.